Regional Weather Roundup
Issued by NWS

Home | Current Version | Previous Version | Graphics & Text | Print | Product List | Glossary Off
Versions: 1 2 3 4 5 6 7 8 9 10 11 12 13 14 15 16 17 18 19 20 21 22 23 24 25 26 27 28 29 30 31 32 33 34 35 36 37 38 39 40 41 42 43 44 45 46 47 48 49 50

000
ASUS44 KMEG 101310
RWRTN
TENNESSEE HOURLY STATE WEATHER ROUNDUP
NATIONAL WEATHER SERVICE MEMPHIS TN
700 AM CST WED FEB 10 2016

TNZ002-004-019-021-049-052-054-088>092-101400-
WEST TENNESSEE

CITY           SKY/WX    TMP DP  RH WIND       PRES   REMARKS
MEMPHIS INTL   PTCLDY    24   8  50 NW12      30.27R WCI  13
NWS MEMPHIS      N/A     23 N/A N/A MISG        N/A
JACKSON        CLEAR     20   9  62 NW7       30.23R WCI  11
DYERSBURG      CLEAR     21   9  58 NW8       30.26R WCI  12
UNION CITY     CLEAR     18   7  62 NW5       30.20S WCI  11
PARIS          CLEAR     14   3  62 VRB5      30.18F WCI   6
$$

TNZ008-025-027-028-033-062-065-066-101400-
NORTH MIDDLE TENNESSEE

CITY           SKY/WX    TMP DP  RH WIND       PRES   REMARKS
NASHVILLE      PTCLDY    20   9  62 NW9       30.16R WCI   9
CLARKSVILLE    PTCLDY    15   8  73 W5        30.16F WCI   8
SMYRNA         LGT SNOW  19  14  81 NW8       30.17R WCI   9
COOKEVILLE     CLOUDY    19  14  79 N5        30.09R WCI  13
CROSSVILLE     LGT SNOW  15   9  76 W9        30.01R WCI   3
$$

TNZ061-075-076-078-094-096-097-101400-
SOUTH MIDDLE TENNESSEE

CITY           SKY/WX    TMP DP  RH WIND       PRES   REMARKS
FAYETTEVILLE   CLOUDY    21  14  73 W5        30.14R WCI  15
TULLAHOMA      CLOUDY    19  16  86 W7        30.11R WCI  10
WINCHESTER     CLOUDY    19  14  79 W7        30.13R WCI  10
MCMINNVILLE    MOCLDY    19  16  86 SW7       30.09R WCI  10
COLUMBIA       CLOUDY    21  18  86 W8        30.15R WCI  12
SHELBYVILLE    CLOUDY    21  18  86 W9        30.15R WCI  11
$$

TNZ017-018-042-046-047-101400-
NORTHEAST TENNESSEE

CITY           SKY/WX    TMP DP  RH WIND       PRES   REMARKS
TRI CITIES     LGT SNOW  17  12  80 W10       29.98R WCI   5
$$

TNZ012-013-036-069-073-074-101400-
CENTRAL EAST TENNESSEE

CITY           SKY/WX    TMP DP  RH WIND       PRES   REMARKS
KNOXVILLE      CLOUDY    19   8  62 SW8       30.07R WCI   9
OAK RIDGE      MOCLDY    20   8  60 VRB5      30.08R WCI  13
GATLINBURG     CLOUDY    18   9  68 SW7       30.06R WCI   8
MORRISTOWN     CLOUDY    18   7  62 NW10G17   30.01R WCI   6
$$

TNZ083-085-099-101400-
SOUTHEAST TENNESSEE

CITY           SKY/WX    TMP DP  RH WIND       PRES   REMARKS
CHATTANOOGA    MOCLDY    23  10  57 NW5       30.13R WCI  17
$$

SKY/WX REPORTED AS FAIR MEANS FEW OR NO CLOUDS BELOW
12 THOUSAND FEET.




USA.gov is the U.S. government's official web portal to all federal, state and local government web resources and services.